When you browse on this site, cookies collect data to enhance your experience and personalize the content and advertising you see.
Visit our Privacy Policy to learn more. By continuing to use the site, you agree to this use of cookies and data.
  • In Czech Republic
  • List of Countries
  • For 7 days
  • Water Temperature
  • Satellite Maps
  • Weather Map
  • Weather Widgets
  • user-avatar
    Login

    Hourly Weather Jewłach

    Today, 16 December, Sunday

    Time Temperature Precipitation Wind Pressure Humidity
    00:00 +8°C° 0 mm 1 mps 768 mmHg 51%
    01:00 +8°C° 0 mm 1 mps 768 mmHg 52%
    02:00 +8°C° 0 mm 1 mps 768 mmHg 52%
    03:00 +7°C° 0 mm 1 mps 767 mmHg 53%
    04:00 +6°C° 0 mm 2 mps 767 mmHg 53%
    05:00 +6°C° 0 mm 2 mps 767 mmHg 53%
    06:00 +6°C° 0 mm 2 mps 767 mmHg 54%
    07:00 +7°C° 0 mm 2 mps 767 mmHg 52%
    08:00 +8°C° 0 mm 2 mps 767 mmHg 49%
    09:00 +9°C° 0 mm 2 mps 767 mmHg 47%
    10:00 +10°C° 0 mm 2 mps 767 mmHg 45%
    11:00 +12°C° 0 mm 2 mps 767 mmHg 42%
    12:00 +13°C° 0 mm 2 mps 767 mmHg 39%
    13:00 +13°C° 0 mm 2 mps 767 mmHg 40%
    14:00 +14°C° 0 mm 2 mps 767 mmHg 40%
    15:00 +14°C° 0 mm 1 mps 767 mmHg 40%
    16:00 +13°C° 0 mm 2 mps 767 mmHg 44%
    17:00 +10°C° 0 mm 2 mps 768 mmHg 48%
    18:00 +9°C° 0 mm 2 mps 768 mmHg 52%
    19:00 +9°C° 0 mm 3 mps 768 mmHg 56%
    20:00 +8°C° 0 mm 3 mps 768 mmHg 59%
    21:00 +8°C° 0 mm 3 mps 769 mmHg 62%
    22:00 +7°C° 0 mm 3 mps 769 mmHg 67%
    23:00 +7°C° 0 mm 3 mps 769 mmHg 73%

    Tomorrow, 17 December, Monday

    Time Temperature Precipitation Wind Pressure Humidity
    00:00 +7°C° 0 mm 3 mps 769 mmHg 78%
    01:00 +6°C° 0 mm 2 mps 769 mmHg 80%
    02:00 +6°C° 0 mm 2 mps 769 mmHg 82%
    03:00 +6°C° 0 mm 2 mps 769 mmHg 85%
    04:00 +6°C° 0 mm 2 mps 769 mmHg 85%
    05:00 +6°C° 0 mm 2 mps 769 mmHg 85%
    06:00 +7°C° 0 mm 1 mps 769 mmHg 85%
    07:00 +7°C° 0 mm 1 mps 769 mmHg 84%
    08:00 +7°C° 0 mm 2 mps 769 mmHg 82%
    09:00 +7°C° 0 mm 2 mps 769 mmHg 80%
    10:00 +7°C° 0 mm 2 mps 768 mmHg 78%
    11:00 +8°C° 0 mm 2 mps 768 mmHg 77%
    12:00 +8°C° 0 mm 2 mps 767 mmHg 75%
    13:00 +8°C° 0 mm 2 mps 767 mmHg 75%
    14:00 +8°C° 0 mm 2 mps 767 mmHg 76%
    15:00 +8°C° 0 mm 2 mps 767 mmHg 76%
    16:00 +8°C° 0 mm 2 mps 767 mmHg 79%
    17:00 +7°C° 0 mm 2 mps 767 mmHg 82%
    18:00 +7°C° 0 mm 2 mps 767 mmHg 85%
    19:00 +7°C° 0.1 mm 2 mps 767 mmHg 85%
    20:00 +6°C° 0.1 mm 2 mps 767 mmHg 86%
    21:00 +6°C° 0.1 mm 2 mps 767 mmHg 87%
    22:00 +6°C° 0.5 mm 2 mps 767 mmHg 87%
    23:00 +6°C° 0.5 mm 2 mps 767 mmHg 88%

    Day after tomorrow, 18 December, Tuesday

    Time Temperature Precipitation Wind Pressure Humidity
    00:00 +7°C° 0.5 mm 1 mps 767 mmHg 88%
    01:00 +7°C° 0.5 mm 1 mps 767 mmHg 89%
    02:00 +7°C° 0.5 mm 1 mps 766 mmHg 89%
    03:00 +7°C° 0.5 mm 1 mps 766 mmHg 89%
    04:00 +7°C° 0.6 mm 1 mps 766 mmHg 90%
    05:00 +7°C° 0.6 mm 1 mps 766 mmHg 90%
    06:00 +7°C° 0.6 mm 1 mps 766 mmHg 90%
    07:00 +7°C° 0.6 mm 1 mps 766 mmHg 90%
    08:00 +7°C° 0.6 mm 1 mps 767 mmHg 90%
    09:00 +7°C° 0.6 mm 1 mps 767 mmHg 89%
    10:00 +7°C° 0.4 mm 1 mps 767 mmHg 88%
    11:00 +7°C° 0.4 mm 1 mps 767 mmHg 87%
    12:00 +8°C° 0.4 mm 1 mps 766 mmHg 86%
    13:00 +8°C° 0.1 mm 1 mps 767 mmHg 85%
    14:00 +8°C° 0.1 mm 1 mps 767 mmHg 84%
    15:00 +8°C° 0.1 mm 1 mps 767 mmHg 84%
    16:00 +8°C° 0 mm 1 mps 767 mmHg 86%
    17:00 +8°C° 0 mm 1 mps 767 mmHg 88%
    18:00 +7°C° 0 mm 1 mps 768 mmHg 90%
    19:00 +7°C° 0 mm 1 mps 768 mmHg 91%
    20:00 +7°C° 0 mm 1 mps 768 mmHg 91%
    21:00 +7°C° 0 mm 1 mps 769 mmHg 92%
    22:00 +7°C° 0 mm 1 mps 769 mmHg 92%
    23:00 +6°C° 0 mm 1 mps 769 mmHg 93%

    19 December, Wednesday

    Time Temperature Precipitation Wind Pressure Humidity
    00:00 +6°C° 0 mm 1 mps 769 mmHg 93%
    01:00 +5°C° 0 mm 0 mps 769 mmHg 93%
    02:00 +5°C° 0 mm 0 mps 769 mmHg 93%
    03:00 +5°C° 0 mm 0 mps 769 mmHg 93%
    04:00 +5°C° 0 mm 0 mps 769 mmHg 92%
    05:00 +5°C° 0 mm 0 mps 769 mmHg 92%
    06:00 +5°C° 0 mm 0 mps 769 mmHg 92%
    07:00 +5°C° 0 mm 0 mps 769 mmHg 90%
    08:00 +6°C° 0 mm 0 mps 769 mmHg 88%
    09:00 +6°C° 0 mm 0 mps 769 mmHg 86%
    10:00 +8°C° 0 mm 1 mps 769 mmHg 83%
    11:00 +8°C° 0 mm 1 mps 768 mmHg 80%
    12:00 +9°C° 0 mm 1 mps 768 mmHg 77%
    13:00 +9°C° 0 mm 1 mps 767 mmHg 76%
    14:00 +9°C° 0 mm 1 mps 767 mmHg 75%
    15:00 +9°C° 0 mm 1 mps 767 mmHg 74%
    16:00 +9°C° 0 mm 1 mps 767 mmHg 77%
    17:00 +8°C° 0 mm 1 mps 767 mmHg 81%
    18:00 +7°C° 0 mm 1 mps 767 mmHg 85%
    19:00 +7°C° 0 mm 1 mps 767 mmHg 86%
    20:00 +7°C° 0 mm 1 mps 767 mmHg 88%
    21:00 +7°C° 0 mm 1 mps 767 mmHg 89%
    22:00 +6°C° 0 mm 1 mps 767 mmHg 89%
    23:00 +6°C° 0 mm 1 mps 767 mmHg 89%

    20 December, Thursday

    Time Temperature Precipitation Wind Pressure Humidity
    00:00 +6°C° 0 mm 1 mps 767 mmHg 88%
    01:00 +6°C° 0 mm 1 mps 766 mmHg 88%
    02:00 +6°C° 0 mm 1 mps 766 mmHg 88%
    03:00 +6°C° 0 mm 1 mps 766 mmHg 87%
    04:00 +6°C° 0 mm 1 mps 765 mmHg 87%
    05:00 +6°C° 0 mm 1 mps 765 mmHg 88%
    06:00 +5°C° 0 mm 2 mps 765 mmHg 88%
    07:00 +5°C° 0 mm 2 mps 765 mmHg 85%
    08:00 +6°C° 0 mm 2 mps 764 mmHg 83%
    09:00 +6°C° 0 mm 2 mps 764 mmHg 80%
    10:00 +7°C° 0 mm 2 mps 764 mmHg 74%
    11:00 +8°C° 0 mm 2 mps 763 mmHg 68%
    12:00 +10°C° 0 mm 2 mps 762 mmHg 62%
    13:00 +10°C° 0 mm 2 mps 762 mmHg 61%
    14:00 +10°C° 0 mm 2 mps 762 mmHg 60%
    15:00 +10°C° 0 mm 2 mps 762 mmHg 59%
    16:00 +10°C° 0 mm 1 mps 762 mmHg 61%
    17:00 +9°C° 0 mm 1 mps 762 mmHg 64%
    18:00 +9°C° 0 mm 1 mps 763 mmHg 67%
    19:00 +9°C° 0 mm 1 mps 763 mmHg 67%
    20:00 +9°C° 0 mm 1 mps 763 mmHg 67%
    21:00 +8°C° 0 mm 1 mps 763 mmHg 67%
    22:00 +8°C° 0 mm 1 mps 763 mmHg 67%
    23:00 +8°C° 0 mm 1 mps 764 mmHg 67%

    21 December, Friday

    Time Temperature Precipitation Wind Pressure Humidity
    00:00 +8°C° 0 mm 1 mps 764 mmHg 67%
    01:00 +7°C° 0 mm 2 mps 764 mmHg 68%
    02:00 +7°C° 0 mm 2 mps 764 mmHg 69%
    03:00 +7°C° 0 mm 2 mps 764 mmHg 69%
    04:00 +7°C° 0 mm 2 mps 765 mmHg 70%
    05:00 +8°C° 0 mm 1 mps 765 mmHg 70%
    06:00 +8°C° 0 mm 1 mps 765 mmHg 70%
    07:00 +9°C° 0 mm 1 mps 766 mmHg 69%
    08:00 +9°C° 0 mm 1 mps 766 mmHg 67%
    09:00 +10°C° 0 mm 1 mps 766 mmHg 65%
    10:00 +11°C° 0 mm 1 mps 766 mmHg 63%
    11:00 +12°C° 0 mm 1 mps 766 mmHg 60%
    12:00 +12°C° 0 mm 2 mps 766 mmHg 57%
    13:00 +12°C° 0 mm 2 mps 766 mmHg 58%
    14:00 +12°C° 0 mm 1 mps 766 mmHg 58%
    15:00 +12°C° 0 mm 1 mps 766 mmHg 58%
    16:00 +12°C° 0 mm 1 mps 766 mmHg 63%
    17:00 +11°C° 0 mm 1 mps 767 mmHg 67%
    18:00 +10°C° 0 mm 1 mps 767 mmHg 72%
    19:00 +10°C° 0 mm 1 mps 767 mmHg 74%
    20:00 +9°C° 0 mm 1 mps 767 mmHg 76%
    21:00 +9°C° 0 mm 1 mps 767 mmHg 78%
    22:00 +9°C° 0 mm 1 mps 767 mmHg 80%
    23:00 +8°C° 0 mm 1 mps 768 mmHg 82%
    Show more